Time,TemperatureF,DewpointF,PressureIn,WindDirection,WindDirectionDegrees,WindSpeedMPH,WindSpeedGustMPH,Humidity,HourlyPrecipIn,Conditions,Clouds,dailyrainin,SolarRadiationWatts/m^2,SoftwareType,DateUTC
2013-09-18 00:02:00,36.0,29.0,-100.00,East,89,2.0,3.0,76,0.00,,,0.00,1.000000,,2013-09-18 08:02:00,
2013-09-18 00:11:00,36.0,29.0,-100.00,East,89,2.0,3.0,76,0.00,,,0.00,1.000000,,2013-09-18 08:11:00,
2013-09-18 00:22:00,36.0,29.0,-100.00,East,89,2.0,3.0,76,0.00,,,0.00,1.000000,,2013-09-18 08:22:00,
2013-09-18 00:52:00,35.0,29.0,-100.00,NE,46,1.0,5.0,79,0.00,,,0.00,1.000000,,2013-09-18 08:52:00,
2013-09-18 01:02:00,35.0,29.0,-100.00,NE,46,1.0,5.0,79,0.00,,,0.00,1.000000,,2013-09-18 09:02:00,
2013-09-18 01:12:00,35.0,29.0,-100.00,NE,46,1.0,5.0,79,0.00,,,0.00,1.000000,,2013-09-18 09:12:00,
2013-09-18 01:22:00,35.0,29.0,-100.00,NE,46,1.0,5.0,79,0.00,,,0.00,1.000000,,2013-09-18 09:22:00,
2013-09-18 01:53:00,34.0,29.0,-100.00,ENE,76,2.0,5.0,81,0.00,,,0.00,1.000000,,2013-09-18 09:53:00,
2013-09-18 02:03:00,34.0,29.0,-100.00,ENE,76,2.0,5.0,81,0.00,,,0.00,1.000000,,2013-09-18 10:03:00,
2013-09-18 02:13:00,34.0,29.0,-100.00,ENE,76,2.0,5.0,81,0.00,,,0.00,1.000000,,2013-09-18 10:13:00,
2013-09-18 02:23:00,34.0,29.0,-100.00,ENE,76,2.0,5.0,81,0.00,,,0.00,1.000000,,2013-09-18 10:23:00,
2013-09-18 02:53:00,34.0,29.0,-100.00,SE,136,2.0,4.0,83,0.00,,,0.00,1.000000,,2013-09-18 10:53:00,
2013-09-18 03:02:00,34.0,29.0,-100.00,SE,136,2.0,4.0,83,0.00,,,0.00,1.000000,,2013-09-18 11:02:00,
2013-09-18 03:12:00,34.0,29.0,-100.00,SE,136,2.0,4.0,83,0.00,,,0.00,1.000000,,2013-09-18 11:12:00,
2013-09-18 03:22:00,34.0,29.0,-100.00,SE,136,2.0,4.0,83,0.00,,,0.00,1.000000,,2013-09-18 11:22:00,
2013-09-18 03:52:00,33.0,29.0,-100.00,East,91,1.0,6.0,85,0.00,,,0.00,1.000000,,2013-09-18 11:52:00,
2013-09-18 04:01:00,33.0,29.0,-100.00,East,91,1.0,6.0,85,0.00,,,0.00,1.000000,,2013-09-18 12:01:00,
2013-09-18 04:12:00,33.0,29.0,-100.00,East,91,1.0,6.0,85,0.00,,,0.00,1.000000,,2013-09-18 12:12:00,
2013-09-18 04:22:00,33.0,29.0,-100.00,East,91,1.0,6.0,85,0.00,,,0.00,1.000000,,2013-09-18 12:22:00,
2013-09-18 04:52:00,31.0,29.0,-100.00,South,171,1.0,5.0,93,0.00,,,0.00,1.000000,,2013-09-18 12:52:00,
2013-09-18 05:01:00,31.0,29.0,-100.00,South,171,1.0,5.0,93,0.00,,,0.00,1.000000,,2013-09-18 13:01:00,
2013-09-18 05:11:00,31.0,29.0,-100.00,South,171,1.0,5.0,93,0.00,,,0.00,1.000000,,2013-09-18 13:11:00,
2013-09-18 19:25:00,34.0,28.0,-100.00,ESE,117,1.0,5.0,79,0.00,,,0.08,29.000000,,2013-09-19 03:25:00,
2013-09-18 20:01:00,34.0,28.0,-100.00,ESE,117,1.0,5.0,79,0.00,,,0.08,29.000000,,2013-09-19 04:01:00,
2013-09-18 20:14:00,34.0,28.0,-100.00,ESE,117,1.0,5.0,79,0.00,,,0.08,29.000000,,2013-09-19 04:14:00,
2013-09-18 20:54:00,32.0,29.0,-100.00,East,91,1.0,3.0,88,0.00,,,0.08,11.000000,,2013-09-19 04:54:00,
2013-09-18 21:03:00,32.0,29.0,-100.00,East,91,1.0,3.0,88,0.00,,,0.08,11.000000,,2013-09-19 05:03:00,
2013-09-18 21:13:00,32.0,29.0,-100.00,East,91,1.0,3.0,88,0.00,,,0.08,11.000000,,2013-09-19 05:13:00,
2013-09-18 21:23:00,32.0,29.0,-100.00,East,91,1.0,3.0,88,0.00,,,0.08,11.000000,,2013-09-19 05:23:00,
2013-09-18 21:52:00,31.0,29.0,-100.00,East,94,2.0,2.0,92,0.00,,,0.08,1.000000,,2013-09-19 05:52:00,
2013-09-18 22:02:00,31.0,29.0,-100.00,East,94,2.0,2.0,92,0.00,,,0.08,1.000000,,2013-09-19 06:02:00,
2013-09-18 22:12:00,31.0,29.0,-100.00,East,94,2.0,2.0,92,0.00,,,0.08,1.000000,,2013-09-19 06:12:00,
2013-09-18 22:22:00,31.0,29.0,-100.00,East,94,2.0,2.0,92,0.00,,,0.08,1.000000,,2013-09-19 06:22:00,
2013-09-18 22:52:00,30.0,28.0,-100.00,East,99,2.0,3.0,94,0.00,,,0.08,1.000000,,2013-09-19 06:52:00,
2013-09-18 23:02:00,30.0,28.0,-100.00,East,99,2.0,3.0,94,0.00,,,0.08,1.000000,,2013-09-19 07:02:00,
2013-09-18 23:11:00,30.0,28.0,-100.00,East,99,2.0,3.0,94,0.00,,,0.08,1.000000,,2013-09-19 07:11:00,
2013-09-18 23:21:00,30.0,28.0,-100.00,East,99,2.0,3.0,94,0.00,,,0.08,1.000000,,2013-09-19 07:21:00,
2013-09-18 23:52:00,28.0,27.0,-100.00,East,86,1.0,3.0,95,0.00,,,0.08,1.000000,,2013-09-19 07:52:00,